www.pogodaiklimat.ru

Погода и климат >> Архив погоды >> Бразилия >> Мату-Гросу >> Кампу-Нову-ду-Паресис


ПОГОДА в Кампу-Нову-ду-Паресисе

  • Прогноз погоды в Кампу-Нову-ду-Паресисе
  • Монитор погоды в Кампу-Нову-ду-Паресисе

АРХИВ ПОГОДЫ в Кампу-Нову-ду-Паресисе

Время (UTC), дата Ветер
(напр.,м/с)
 
Видим.   Явления Облачность Т
(С)
Тd
(С)
f
(%)
Тe
(С)
Тes
(С)
Комфортность P
(гПа)
Po
(гПа)
Тmin
(С)
Tmax
(С)
R
(мм)
R24
(мм)
S
(см)
13 15.09 ЮЗ 1
{3}
н/о н/о +33.7 -17.4 3 +29 +29 жарко 1009.7 952.3
14 15.09 ЮЗ 1
{3}
н/о н/о +34.8 -16.7 3 +30 +30 жарко 1009.4 952.2
15 15.09 ЮЗ 1
{4}
н/о н/о +36.4 -15.7 3 +32 +32 жарко 1008.7 951.8
16 15.09 ЮЗ 2
{4}
н/о н/о +36.0 -15.9 3 +31 +31 жарко 1007.7 950.8
17 15.09 ЮЗ 1
{4}
н/о н/о +37.8 -14.8 3 +33 +33 жарко 1006.0 949.5
18 15.09 ЮЗ 2
{5}
н/о н/о +37.2 -15.1 3 +32 +32 жарко 1005.0 948.5
19 15.09 ЮЗ 2
{5}
н/о н/о +37.9 -14.7 3 +33 +33 жарко 1004.2 947.9
20 15.09 ЮЗ 2
{4}
н/о н/о +37.0 -15.3 3 +32 +32 жарко 1004.2 947.7
21 15.09 ЮЗ 1
{3}
н/о н/о +34.9 -16.6 3 +30 +30 жарко 1004.7 947.8
22 15.09 ЮЗ 1
{3}
н/о н/о +32.5 -18.3 3 +28 +28 жарко 1005.5 948.1
23 15.09 ЮЗ 1
{3}
н/о н/о +30.5 -19.6 3 +26 +26 жарко 1006.7 948.9
00 16.09 ЮЗ 1
{2}
н/о н/о +28.2 -21.1 3 +24 +24 комфорт 1007.8 949.5
01 16.09 ЮЗ 1
{2}
н/о н/о +28.0 -21.3 3 +24 +24 комфорт 1008.9 950.5
02 16.09 ЮЗ 1
{2}
н/о н/о +26.3 -22.4 3 +22 +22 комфорт 1009.6 950.8
03 16.09 ЮЗ 1
{2}
н/о н/о +25.9 -22.6 3 +22 +22 комфорт 1009.8 950.9
04 16.09 ЮЗ 1
{2}
н/о н/о +25.7 -22.8 3 +22 +22 комфорт 1009.4 950.5
05 16.09 ЮЗ 1
{3}
н/о н/о +24.5 -23.6 3 +21 +21 комфорт 1009.2 950.1
06 16.09 ЮЗ 1
{2}
н/о н/о +23.8 -24.0 3 +20 +20 1009.2 950.0
11 16.09 ЮЗ 1
{3}
н/о н/о +25.1 -23.2 3 +21 +21 комфорт 1010.2 951.2
12 16.09 ЮЗ 1
{3}
н/о н/о +29.4 -20.3 3 +25 +25 комфорт 1010.0 951.8
13 16.09 ЮЗ 1
{3}
н/о н/о +31.6 -18.8 3 +27 +27 жарко 1010.0 952.2
14 16.09 ЮЗ 2
{3}
н/о н/о +34.0 -17.2 3 +29 +29 жарко 1009.6 952.3
15 16.09 ЮЗ 1
{4}
н/о н/о +35.7 -16.1 3 +31 +31 жарко 1008.7 951.7
16 16.09 ЮЗ 2
{4}
н/о н/о +37.1 -15.2 3 +32 +32 жарко 1007.5 950.8
17 16.09 ЮЗ 2
{4}
н/о н/о +36.6 -15.5 3 +32 +32 жарко 1006.4 949.7
18 16.09 ЮЗ 2
{4}
н/о н/о +37.2 -15.1 3 +32 +32 жарко 1005.3 948.8
19 16.09 ЮЗ 1
{3}
н/о н/о +37.2 -15.1 3 +32 +32 жарко 1004.7 948.2
20 16.09 ЮЗ 1
{3}
н/о н/о +35.6 -16.2 3 +31 +31 жарко 1005.1 948.3
21 16.09 ЮЗ 1
{3}
н/о н/о +34.4 -17.0 3 +30 +30 жарко 1005.4 948.4
22 16.09 ЮЗ 1
{2}
н/о н/о +32.4 -18.3 3 +28 +28 жарко 1006.3 948.9
23 16.09 ЮЗ 1
{2}
н/о н/о +29.7 -20.1 3 +25 +25 комфорт 1007.5 949.5
00 17.09 ЮЗ 1
{2}
н/о н/о +29.2 -20.5 3 +25 +25 комфорт 1007.9 949.8
01 17.09 ЮЗ 1
{2}
н/о н/о +27.8 -21.4 3 +23 +23 комфорт 1008.8 950.4
02 17.09 ЮЗ 1
{1}
н/о н/о +26.9 -22.0 3 +23 +23 комфорт 1009.4 950.8
03 17.09 ЮЗ 1
{1}
н/о н/о +25.3 -23.1 3 +22 +22 комфорт 1009.9 950.9
11 17.09 штиль 0 н/о н/о +23.9 -24.0 3 +21 +21 комфорт 1011.2 951.9
12 17.09 штиль 0
{1}
н/о н/о +29.2 -20.5 3 +25 +25 комфорт 1010.6 952.3
13 17.09 ЮЗ 1
{1}
н/о н/о +32.3 -18.3 3 +27 +27 жарко 1009.9 952.2
14 17.09 ЮЗ 1
{3}
н/о н/о +34.7 -16.8 3 +30 +30 жарко 1009.1 951.9
15 17.09 ЮЗ 1
{5}
н/о н/о +36.2 -15.7 3 +31 +31 жарко 1008.2 951.3
16 17.09 ЮЗ 2
{4}
н/о н/о +36.9 -15.3 3 +32 +32 жарко 1006.8 950.1
17 17.09 ЮЗ 1
{3}
н/о н/о +37.2 -15.1 3 +32 +32 жарко 1005.1 948.6
18 17.09 ЮЗ 1
{5}
н/о н/о +36.7 -15.5 3 +32 +32 жарко 1004.1 947.6
19 17.09 ЮЗ 2
{4}
н/о н/о +37.1 -15.2 3 +32 +32 жарко 1003.2 946.8
20 17.09 ЮЗ 1
{4}
н/о н/о +36.8 -15.4 3 +32 +32 жарко 1002.9 946.4
21 17.09 ЮЗ 1
{3}
н/о н/о +35.2 -16.4 3 +30 +30 жарко 1003.0 946.3
22 17.09 ЮЗ 1
{2}
н/о н/о +32.1 -18.5 3 +27 +27 жарко 1003.9 946.5
23 17.09 ЮЗ 1
{2}
н/о н/о +29.3 -20.4 3 +25 +25 комфорт 1005.1 947.2
00 18.09 ЮЗ 1
{3}
н/о н/о +29.9 -20.0 3 +25 +25 комфорт 1005.2 947.4
01 18.09 ЮЗ 1
{3}
н/о н/о +27.7 -21.4 3 +23 +23 комфорт 1006.1 947.8
02 18.09 ЮЗ 1
{2}
н/о н/о +28.3 -21.0 3 +24 +24 комфорт 1006.2 948.0
11 18.09 штиль 0 н/о н/о +23.9 -24.0 3 +21 +21 комфорт 1008.6 949.4
12 18.09 ЮЗ 1
{2}
н/о н/о +27.6 -21.5 3 +23 +23 комфорт 1008.8 950.3
13 18.09 ЮЗ 1
{3}
н/о н/о +31.1 -19.2 3 +26 +26 жарко 1008.5 950.7
14 18.09 ЮЗ 2
{4}
н/о н/о +33.5 -17.6 3 +29 +29 жарко 1007.7 950.4
15 18.09 ЮЗ 2
{4}
н/о н/о +35.1 -16.5 3 +30 +30 жарко 1006.8 949.8
16 18.09 ЮЗ 2
{4}
н/о н/о +35.7 -16.1 3 +31 +31 жарко 1005.6 948.8
17 18.09 ЮЗ 1
{3}
н/о н/о +36.3 -15.7 3 +31 +31 жарко 1004.2 947.6
18 18.09 ЮЗ 1
{4}
н/о н/о +36.3 -15.7 3 +31 +31 жарко 1002.9 946.4
19 18.09 ЮЗ 2
{4}
н/о н/о +35.7 -16.1 3 +31 +31 жарко 1002.3 945.7
20 18.09 ЮЗ 2
{4}
н/о н/о +35.4 -16.3 3 +31 +31 жарко 1002.1 945.4
21 18.09 ЮЗ 2
{4}
н/о н/о +34.6 -16.8 3 +30 +30 жарко 1002.1 945.3
22 18.09 ЮЗ 1
{3}
н/о н/о +32.1 -18.5 3 +27 +27 жарко 1003.0 945.7
23 18.09 ЮЗ 2
{3}
н/о н/о +30.6 -19.5 3 +26 +26 жарко 1004.0 946.4
00 19.09 ЮЗ 1
{3}
н/о н/о +28.4 -21.0 3 +24 +24 комфорт 1005.2 947.1
01 19.09 ЮЗ 1
{3}
н/о н/о +27.3 -21.7 3 +23 +23 комфорт 1006.3 947.9
02 19.09 ЮЗ 1
{3}
н/о н/о +27.6 -21.5 3 +23 +23 комфорт 1006.7 948.3
11 19.09 ЮЗ 2 н/о н/о +24.8 -23.4 3 +21 +21 комфорт 1007.7 948.8
12 19.09 ЮЗ 3
{5}
н/о н/о +27.8 -21.4 3 +23 +23 комфорт 1008.0 949.6
13 19.09 ЮЗ 3
{5}
н/о н/о +30.1 -19.9 3 +25 +25 комфорт 1008.1 950.1
14 19.09 ЮЗ 3
{6}
н/о н/о +31.8 -18.7 3 +27 +27 жарко 1007.8 950.2
15 19.09 ЮЗ 3
{6}
н/о н/о +33.3 -17.7 3 +28 +28 жарко 1006.9 949.6
16 19.09 ЮЗ 3
{7}
н/о н/о +34.4 -17.0 3 +30 +30 жарко 1005.7 948.7
17 19.09 ЮЗ 3
{6}
н/о н/о +34.7 -16.8 3 +30 +30 жарко 1004.6 947.7
18 19.09 ЮЗ 2
{6}
н/о н/о +35.1 -16.5 3 +30 +30 жарко 1003.5 946.7
19 19.09 ЮЗ 3
{6}
н/о н/о +35.4 -16.3 3 +31 +31 жарко 1002.8 946.1
20 19.09 ЮЗ 2
{6}
н/о н/о +35.1 -16.5 3 +30 +30 жарко 1002.5 945.8
21 19.09 ЮЗ 2
{5}
н/о н/о +33.7 -17.4 3 +29 +29 жарко 1002.9 945.9
22 19.09 ЮЗ 1
{4}
н/о н/о +31.5 -18.9 3 +27 +27 жарко 1003.9 946.4
23 19.09 ЮЗ 1
{3}
н/о н/о +29.4 -20.3 3 +25 +25 комфорт 1004.9 947.0
00 20.09 ЮЗ 1
{2}
н/о н/о +28.3 -21.0 3 +24 +24 комфорт 1006.0 947.8
01 20.09 ЮЗ 1
{2}
н/о н/о +27.7 -21.5 3 +23 +23 комфорт 1006.9 948.6
02 20.09 ЮЗ 1
{3}
н/о н/о +28.4 -21.0 3 +24 +24 комфорт 1007.4 949.2
03 20.09 ЮЗ 2
{3}
н/о н/о +25.9 -22.7 3 +22 +22 комфорт 1008.1 949.3
04 20.09 ЮЗ 1
{3}
н/о н/о +24.7 -23.4 3 +21 +21 комфорт 1008.1 949.1
11 20.09 ЮЗ 2 н/о н/о +26.1 -22.5 3 +22 +22 комфорт 1010.5 951.6
12 20.09 ЮЗ 2
{5}
н/о н/о +29.4 -20.3 3 +25 +25 комфорт 1010.6 952.4
14 20.09 ЮЗ 3
{5}
н/о н/о +33.5 -17.6 3 +29 +29 жарко 1010.5 953.0
15 20.09 ЮЗ 2
{5}
н/о н/о +34.5 -16.9 3 +30 +30 жарко 1010.0 952.7
16 20.09 ЮЗ 2
{4}
н/о н/о +35.4 -16.3 3 +31 +31 жарко 1008.4 951.4
17 20.09 ЮЗ 1
{4}
н/о н/о +34.7 -16.8 3 +30 +30 жарко 1007.3 950.2
18 20.09 ЮЗ 2
{4}
н/о н/о +36.5 -15.6 3 +32 +32 жарко 1005.6 948.9
19 20.09 ЮЗ 2
{4}
н/о н/о +36.5 -15.6 3 +32 +32 жарко 1004.8 948.2
20 20.09 ЮЗ 3
{6}
н/о н/о +28.2 -21.1 3 +24 +24 комфорт 1006.5 948.3
21 20.09 ЮЗ 2
{6}
н/о н/о +31.2 -19.1 3 +26 +26 жарко 1005.9 948.3
22 20.09 ЮЗ 1
{4}
н/о н/о +28.3 -21.0 3 +24 +24 комфорт 1007.1 948.9
23 20.09 ЮЗ 1
{2}
н/о н/о +30.3 -19.7 3 +26 +26 жарко 1007.5 949.6
00 21.09 ЮЗ 1
{4}
н/о н/о +27.6 -21.5 3 +23 +23 комфорт 1009.3 950.8
01 21.09 ЮЗ 1
{3}
н/о н/о +27.4 -21.6 3 +23 +23 комфорт 1010.8 952.2
02 21.09 штиль 0
{3}
н/о н/о +27.2 -21.8 3 +23 +23 комфорт 1011.2 952.5
03 21.09 ЮЗ 1
{2}
н/о н/о +25.6 -22.8 3 +22 +22 комфорт 1011.2 952.2
11 21.09 ЮЗ 2 н/о н/о +26.1 -22.5 3 +22 +22 комфорт 1011.7 952.8
12 21.09 ЮЗ 2
{4}
н/о н/о +27.9 -21.3 3 +24 +24 комфорт 1011.8 953.2
13 21.09 ЮЗ 2
{4}
н/о н/о +29.7 -20.1 3 +25 +25 комфорт 1011.5 953.3
14 21.09 ЮЗ 2
{4}
н/о н/о +32.2 -18.5 3 +27 +27 жарко 1011.0 953.3
15 21.09 ЮЗ 2
{4}
н/о н/о +33.6 -17.5 3 +29 +29 жарко 1010.1 952.7
16 21.09 ЮЗ 2
{4}
н/о н/о +33.9 -17.3 3 +29 +29 жарко 1009.3 952.0
17 21.09 ЮЗ 2
{4}
н/о н/о +34.7 -16.8 3 +30 +30 жарко 1008.0 950.9
18 21.09 ЮЗ 2
{4}
н/о н/о +35.6 -16.2 3 +31 +31 жарко 1006.2 949.3
19 21.09 ЮЗ 3
{5}
н/о н/о +34.6 -16.9 3 +30 +30 жарко 1005.7 948.7
20 21.09 ЮЗ 3
{5}
н/о н/о +34.0 -17.2 3 +29 +29 жарко 1006.0 948.9
21 21.09 ЮЗ 2
{5}
н/о н/о +32.5 -18.2 3 +28 +28 жарко 1006.5 949.1
22 21.09 ЮЗ 1
{4}
н/о н/о +30.5 -19.6 3 +26 +26 жарко 1007.9 950.0
23 21.09 ЮЗ 2
{3}
н/о н/о +29.1 -20.5 3 +25 +25 комфорт 1009.0 950.8
00 22.09 ЮЗ 1
{3}
н/о н/о +28.2 -21.1 3 +24 +24 комфорт 1009.9 951.5
01 22.09 ЮЗ 1
{2}
н/о н/о +27.6 -21.5 3 +23 +23 комфорт 1010.6 952.0
02 22.09 ЮЗ 1
{2}
н/о н/о +26.7 -22.1 3 +23 +23 комфорт 1010.8 952.0
03 22.09 ЮЗ 1
{2}
н/о н/о +25.5 -22.9 3 +22 +22 комфорт 1011.1 952.1
04 22.09 ЮЗ 1
{2}
н/о н/о +24.9 -23.3 3 +21 +21 комфорт 1010.9 951.8
05 22.09 ЮЗ 1
{3}
н/о н/о +25.0 -23.2 3 +21 +21 комфорт 1010.6 951.5
06 22.09 ЮЗ 1
{2}
н/о н/о +25.9 -22.7 3 +22 +22 комфорт 1010.1 951.2
11 22.09 ЮЗ 2
{3}
н/о н/о +24.8 -23.4 3 +21 +21 комфорт 1013.2 953.9

 

Местоположение метеостанции Кампу-Нову-ду-Паресис (Мату-Гросу, Бразилия): широта -13.78 долгота -57.83 высота над уровнем моря 572 м.

В архиве по умолчанию представлена погода в Кампу-Нову-ду-Паресисе за последнюю неделю. Архивные данные за месяц целиком и за предыдущие месяцы, начиная с января 2011 года, Вы можете получить, выбрав интересующий диапазон дат из раскрывающегося списка и нажав кнопку "Ввод!".


*Определитесь, кто Вы:
робот инопланетянин человек

Внимание! Время в таблицах - всемирное. Для получения местного времени необходимо прибавить поправку, которая равна -3 ч.

Смотрите также архив погоды в соседних городах и на ближайших метеорологических станциях:

Погода в Тангара-да-Серре (Мату-Гросу, Бразилия) (106 км)
Погода в Нова-Маринге (Мату-Гросу, Бразилия) (115 км)
Погода в Сан-Хосе-ду-Рио-Кларо (Мату-Гросу, Бразилия) (131 км)
Погода в Ново-Мундо (Мату-Гросу, Бразилия) (147 км)
Погода в Салту-ду-Сеу (Мату-Гросу, Бразилия) (154 км)
Погода в Диамантину (Мату-Гросу, Бразилия) (164 км)
Погода в Порто-Эстреле (Мату-Гросу, Бразилия) (184 км)
Погода в Комодоро (Мату-Гросу, Бразилия) (210 км)
Погода в Глеба Селеста (Мату-Гросу, Бразилия) (227 км)
Погода в Понтис-и-Ласерде (Мату-Гросу, Бразилия) (231 км)

Пояснения к столбцам:

Ветер - указаны скорость ветра в м/с - средняя за 10 мин, порывы в срок и между сроками (в фигурных скобках) и направление, откуда дует ветер: С - северный, СВ - северо-восточный, В - восточный, ЮВ - юго-восточный, Ю - южный, ЮЗ - юго-западный, З - западный, СЗ - северо-западный.
Видимость - горизонтальная дальность видимости в метрах или километрах. При видимости от 1 до 10 км при отсутствии осадков обычно наблюдается дымка, при ухудшении видимости до 1 км и менее - туман. В сухую погоду видимость может ухудшаться дымом, пылью или мглою.
Явления - указаны атмосферные явления, наблюдавшиеся в срок или в последний час перед сроком; фигурными скобками обозначены явления, наблюдавшиеся между сроками (за 1-3 часа до срока); квадратными скобками обозначены град или гололедные отложения с указанием их диаметра в мм.
Облачность - указаны через наклонную черту общая и нижняя облачность в баллах и высота нижней границы облаков в метрах; квадратными скобками обозначены формы облаков: Ci - перистые, Cs - перисто-слоистые, Cc - перисто-кучевые, Ac - высококучевые, As - высокослоистые, Sc - слоисто-кучевые, Ns - слоисто-дождевые, Cu - кучевые, Cb - кучево-дождевые. Подробнее классификацию облаков см. в Атласе облаков (PDF).
T - Температура воздуха - температура, измеренная на высоте 2 м над землей.
Td - Температура точки росы - температура, при понижении до которой содержащийся в воздухе водяной пар достигнет насыщения.
f - Относительная влажность воздуха - влажноcть воздуха, измеренная на высоте 2 м над землей.
Te - Эффективная температура - температура, которую ощущает одетый по сезону человек в тени. Характеристика душности погоды. При расчете учитывается влияние влажности воздуха и скорости ветра на теплоощущения человека.
Tes - Эффективная температура на солнце - температура, которую ощущает человек, с поправкой на солнечный нагрев. Характеристика знойности погоды. Зависит от высоты солнца над горизонтом, облачности и скорости ветра. Ночью, в пасмурную погоду, а также при ветре 12 м/с и более поправка равна нулю.
P - Атмосферное давление - приведенное к уровню моря атмосферное давление.
Po - Атмосферное давление - измеренное на уровне метеостанции атмосферное давление.
Tmin - Минимальная температура - минимум температуры воздуха на высоте 2 м над землей.
Tmax - Максимальная температура - максимум температуры воздуха на высоте 2 м над землей.
R - Количество осадков - Количество выпавших осадков за период времени, мм. При наведении курсора мыши на число - период времени, за который выпало указанное количество осадков.
R24 - Количество осадков - Количество выпавших осадков за 24 часа, мм.
S - Снежный покров - Высота снежного покрова, см. При наведении курсора мыши на число - состояние снежного покрова и степень покрытия местности в баллах.